This demonstration page uses our WeatherBlox Daily Observations layout. Learn more.

Left ArrowRight Arrow

40.92501, -98.34201

Hourly Observations for May 1, 2020

Temp ( °F °C ) Dew Point ( °F °C ) Humidity (%) Winds ( mph kmh ) Pressure ( in mb ) Visibility ( mi km ) Precip ( " mm )
12:53 am 00:53 Clear 62 16.7 41 5 46 46 SSE 18 30 29.79 1009 10 16 0.00 0.00
1:53 am 01:53 Clear 60 15.6 41 5 50 50 SSE 16 26 29.78 1008 10 16 0.00 0.00
2:53 am 02:53 Clear 59 15 41 5 51 51 S 13 20 29.77 1008 10 16 0.00 0.00
3:53 am 03:53 Mostly Clear 58 14.4 42 5.6 56 56 SSE 13 20 29.77 1008 10 16 0.00 0.00
4:53 am 04:53 Clear 58 14.4 43 6.1 58 58 SSE 10 17 29.77 1008 10 16 0.00 0.00
5:53 am 05:53 Clear 58 14.4 43 6.1 58 58 SSE 12 19 29.75 1008 10 16 0.00 0.00
6:53 am 06:53 Sunny 58 14.4 44 6.7 60 60 SSE 14 22 29.74 1007 10 16 0.00 0.00
7:53 am 07:53 Sunny 59 15 45 7.2 60 60 S 15 24 29.73 1007 10 16 0.00 0.00
8:53 am 08:53 Sunny 63 17.2 46 7.8 54 54 SSW 9 15 29.78 1009 10 16 0.00 0.00
9:53 am 09:53 Sunny 66 18.9 47 8.3 50 50 SSW 10 17 29.77 1008 10 16 0.00 0.00
10:53 am 10:53 Sunny 71 21.7 48 8.9 44 44 SW 10 17 29.77 1008 10 16 0.00 0.00
11:53 am 11:53 Sunny 77 25 48 8.9 36 36 WSW 5 7 29.75 1008 10 16 0.00 0.00
12:53 pm 12:53 Sunny 82 27.8 50 10 33 33 WNW 7 11 29.76 1008 10 16 0.00 0.00
1:53 pm 13:53 Sunny 84 28.9 51 10.6 32 32 NNW 9 15 29.76 1008 10 16 0.00 0.00
2:53 pm 14:53 Sunny 86 30 50 10 29 29 N 8 13 29.75 1008 10 16 0.00 0.00
3:53 pm 15:53 Sunny 89 31.7 48 8.9 24 24 NW 13 20 29.74 1007 10 16 0.00 0.00
4:53 pm 16:53 Sunny 88 31.1 49 9.4 26 26 N 13 20 29.75 1007 10 16 0.00 0.00
5:53 pm 17:53 Sunny 88 31.1 47 8.3 24 24 N 13 20 29.76 1008 10 16 0.00 0.00
6:53 pm 18:53 Sunny 86 30 46 7.8 25 25 NNE 15 24 29.77 1008 10 16 0.00 0.00
7:53 pm 19:53 Sunny 81 27.2 45 7.2 28 28 NNE 8 13 29.78 1009 10 16 0.00 0.00
8:53 pm 20:53 Clear 68 20 44 6.7 42 42 N 10 17 29.81 1010 10 16 0.00 0.00
9:53 pm 21:53 Clear 63 17.2 45 7.2 52 52 N 10 17 29.85 1011 10 16 0.00 0.00
10:53 pm 22:53 Clear 67 19.4 46 7.8 47 47 N 13 20 29.88 1012 10 16 0.00 0.00
11:53 pm 23:53 Clear 68 20 46 7.8 45 45 NNE 12 19 29.90 1013 10 16 0.00 0.00

Powered by AerisWeather